Погода в Среднем Азякове

Россия / Республика Марий Эл     56°37′30″N   47°38′40″E
темп.,
°C
ветер,
м/с
пор.,
м/с
влажн.,
%
обл.,
%
осадки,
мм/ч
давл.,
гПа
погр.,
м
13 мая, чт
чт1300:00+14ююз127546 0.0 102516
03:00+14вюв227160 0.0 102528
06:00+16вюв256542 0.0 1025153
09:00+22юв47448 0.0 1024767
12:00+25юв573491 0.0 10231729
15:00+25юв473878 0.0 10221675
18:00+20вюв4126593 0.1 1021484
21:00+17юв31176100 0.1 1020267
14 мая, пт
пт1400:00+16ююв31280100 0.2 1020325
03:00+15ю3108486 0.3 1020287
06:00+16ююв2880100 0.1 1020256
09:00+21ю355899 0.1 1020668
12:00+24ю4652100 0.1 10191140
15:00+25ююз464958 0.1 10191600
18:00+23юз36605 0.0 1018265
21:00+17зсз1185100 0.0 101911
15 мая, сб
сб1500:00+16ююв229095 0.0 101914
03:00+16юв2387100 0.0 101852
06:00+18юв3880100 0.0 1018243
09:00+24ю5849100 0.0 1017552
12:00+27ю61133100 0.0 10161259
15:00+29ююз613316 0.0 10151828
18:00+25ююз612405 0.0 1015893
21:00+18ю414685 0.0 1015338
16 мая, вс
вс1600:00+16ю311792 0.0 1015229
03:00+14ю228122 0.0 101525
06:00+17ю376970 0.0 1015190
09:00+23ююз4751100 0.0 1014724
12:00+25юз5847100 0.0 10141427
15:00+25юз585096 0.0 10141637
18:00+22зюз486687 0.1 1014544
21:00+17зюз38870 0.2 1014158
17 мая, пн
пн1700:00+15зюз238926 0.0 101552
03:00+14юз22905 0.0 101631
06:00+17юз24753 0.0 1017177
09:00+22зюз365099 0.0 10171190
12:00+25зюз46385 0.0 10171741
15:00+26зюз463751 0.0 10161895
18:00+24зюз2555100 0.0 1016196
21:00+19з2275100 0.0 101717